TimeGMT,TemperatureF,Dew PointF,Humidity,Sea Level PressureIn,VisibilityMPH,Wind Direction,Wind SpeedMPH,Gust SpeedMPH,PrecipitationIn,Events,Conditions,WindDirDegrees,DateUTC
2:50 AM,39,34,76,29.47,15,West,10.4,,,,Scattered Clouds,280,2012-12-07 02:50:00
5:50 AM,37,33,79,29.47,14,West,10.4,,,,Scattered Clouds,280,2012-12-07 05:50:00
6:50 AM,35.6,32.0,87,29.47,6.2,West,10.4,-,N/A,,Partly Cloudy,280,2012-12-07 06:50:00
7:20 AM,35.6,32.0,87,29.47,6.2,West,9.2,-,N/A,,Partly Cloudy,270,2012-12-07 07:20:00
7:50 AM,35.6,32.0,87,29.47,6.2,West,11.5,-,N/A,,Partly Cloudy,280,2012-12-07 07:50:00
8:20 AM,35.6,32.0,87,29.47,6.2,West,15.0,-,N/A,,Scattered Clouds,270,2012-12-07 08:20:00
8:50 AM,36,33,85,29.51,5,WNW,17.3,,,,Mostly Cloudy,300,2012-12-07 08:50:00
8:50 AM,37.4,33.8,87,29.50,4.3,West,15.0,26.5,N/A,Rain,Heavy Rain,280,2012-12-07 08:50:00
9:20 AM,35.6,33.8,93,29.50,6.2,WNW,13.8,-,N/A,Rain-Snow,Heavy Snow,300,2012-12-07 09:20:00
9:50 AM,37.4,35.6,93,29.53,6.2,WNW,13.8,-,N/A,,Scattered Clouds,300,2012-12-07 09:50:00
10:20 AM,39.2,35.6,87,29.53,6.2,WNW,16.1,-,N/A,,Scattered Clouds,300,2012-12-07 10:20:00
10:50 AM,39.2,35.6,87,29.56,6.2,NW,17.3,-,N/A,,Scattered Clouds,310,2012-12-07 10:50:00
11:20 AM,41.0,35.6,81,29.56,6.2,NW,15.0,-,N/A,,Partly Cloudy,310,2012-12-07 11:20:00
11:50 AM,42,33,62,29.57,16,NW,18.4,,,,,310,2012-12-07 11:50:00
11:50 AM,42.8,33.8,70,29.56,6.2,NW,19.6,-,N/A,,Partly Cloudy,310,2012-12-07 11:50:00
12:20 PM,41.0,33.8,76,29.56,6.2,NW,18.4,-,N/A,,Partly Cloudy,310,2012-12-07 12:20:00
12:50 PM,42.8,33.8,70,29.56,6.2,WNW,20.7,33.4,N/A,,Partly Cloudy,300,2012-12-07 12:50:00
1:20 PM,42.8,33.8,70,29.59,6.2,NW,23.0,36.8,N/A,,Partly Cloudy,310,2012-12-07 13:20:00
1:50 PM,42.8,33.8,70,29.59,6.2,NW,19.6,33.4,N/A,,Partly Cloudy,320,2012-12-07 13:50:00
2:20 PM,42.8,33.8,70,29.62,6.2,NW,17.3,28.8,N/A,,Partly Cloudy,320,2012-12-07 14:20:00
2:50 PM,43,35,65,29.64,16,NW,13.8,,,,Partly Cloudy,310,2012-12-07 14:50:00
2:50 PM,42.8,35.6,76,29.62,6.2,WNW,12.7,-,N/A,,Scattered Clouds,300,2012-12-07 14:50:00
3:20 PM,42.8,35.6,76,29.65,6.2,WNW,11.5,-,N/A,,Scattered Clouds,300,2012-12-07 15:20:00
3:50 PM,41.0,35.6,81,29.65,6.2,WNW,11.5,-,N/A,,Partly Cloudy,300,2012-12-07 15:50:00
4:20 PM,39.2,35.6,87,29.68,6.2,NW,11.5,-,N/A,,Partly Cloudy,310,2012-12-07 16:20:00
4:50 PM,39.2,33.8,81,29.71,6.2,NW,15.0,-,N/A,,Partly Cloudy,310,2012-12-07 16:50:00
5:20 PM,39.2,33.8,81,29.74,6.2,NW,16.1,-,N/A,,Partly Cloudy,320,2012-12-07 17:20:00
5:50 PM,40,32,64,29.76,14,NNW,16.1,,,,Partly Cloudy,330,2012-12-07 17:50:00
5:50 PM,39.2,32.0,75,29.74,6.2,NW,18.4,-,N/A,,Partly Cloudy,320,2012-12-07 17:50:00
6:20 PM,39.2,32.0,75,29.77,6.2,NNW,21.9,34.5,N/A,,Scattered Clouds,330,2012-12-07 18:20:00
6:50 PM,39.2,32.0,75,29.80,6.2,NNW,18.4,-,N/A,,Mostly Cloudy,330,2012-12-07 18:50:00
7:50 PM,41.0,33.8,76,29.83,6.2,NNW,15.0,-,N/A,,Mostly Cloudy,330,2012-12-07 19:50:00
8:20 PM,41.0,33.8,76,29.86,6.2,NNW,17.3,-,N/A,,Mostly Cloudy,330,2012-12-07 20:20:00
8:50 PM,42,34,64,29.88,40,NNW,12.7,,,,Partly Cloudy,340,2012-12-07 20:50:00
8:50 PM,41.0,33.8,76,29.86,-9999.0,North,-9999.0,-,N/A,,Mostly Cloudy,0,2012-12-07 20:50:00
9:20 PM,41.0,35.6,81,29.89,6.2,NNW,16.1,-,N/A,,Mostly Cloudy,330,2012-12-07 21:20:00
11:50 PM,41,35,71,30.00,25,North,10.4,,,,Mostly Cloudy,350,2012-12-07 23:50:00